This is the latest recevied weather packets stored in our database for station/object WI0K. If no packets are shown the sender has not sent any weather packets the latest 10 day(s).
| Time | Temp. | Humidity | Pressure | Rain* | Wind** | Luminosity | Snow |
|---|---|---|---|---|---|---|---|
| 1777543328 | 5° C | 92% | 833.2 hPa | 0.76 mm | - | 0 W/m² | - |
| 1777543027 | 5° C | 88% | 833.3 hPa | 0.76 mm | - | 0 W/m² | - |
| 1777542726 | 5° C | 91% | 833.3 hPa | 0.76 mm | - | 0 W/m² | - |
| 1777542426 | 5.56° C | 90% | 833.3 hPa | 0.51 mm | - | 0 W/m² | - |
| 1777542125 | 5.56° C | 91% | 833.2 hPa | 0.51 mm | - | 0 W/m² | - |
| 1777541824 | 5.56° C | 90% | 833.1 hPa | 0.51 mm | - | 0 W/m² | - |
| 1777541524 | 5.56° C | 88% | 833.2 hPa | 0.25 mm | - | 0 W/m² | - |
| 1777541223 | 5.56° C | 88% | 833.1 hPa | 0.25 mm | - | 0 W/m² | - |
| 1777540922 | 6.11° C | 88% | 1020.4 hPa | 0.25 mm | - | 0 W/m² | - |
| 1777540622 | 6.11° C | 87% | 833.1 hPa | 0.25 mm | - | 0 W/m² | - |
| 1777540321 | 6.11° C | 87% | 1020.4 hPa | 0.25 mm | - | 0 W/m² | - |
| 1777540021 | 6.11° C | 88% | 833 hPa | 0.25 mm | - | 0 W/m² | - |
| 1777539720 | 6.67° C | 88% | 832.9 hPa | 0.25 mm | - | 0 W/m² | - |
| 1777539419 | 6.67° C | 86% | 832.9 hPa | 0 mm | - | 0 W/m² | - |
| 1777539118 | 6.11° C | 86% | 832.8 hPa | 0 mm | - | 0 W/m² | - |
| 1777538818 | 6.11° C | 87% | 1020.2 hPa | 0 mm | - | 0 W/m² | - |
| 1777538517 | 6.11° C | 87% | 1020.1 hPa | 0 mm | - | 0 W/m² | - |
| 1777538216 | 6.11° C | 86% | 832.8 hPa | 0 mm | - | 0 W/m² | - |
| 1777537916 | 6.67° C | 86% | 832.8 hPa | 0 mm | - | 0 W/m² | - |
| 1777537615 | 6.67° C | 86% | 832.8 hPa | 0 mm | - | 0 W/m² | - |
| 1777537315 | 6.67° C | 85% | 832.8 hPa | 0 mm | - | 0 W/m² | - |
| 1777537014 | 6.67° C | 84% | 832.8 hPa | 0 mm | - | 0 W/m² | - |
| 1777536713 | 6.67° C | 85% | 832.9 hPa | 0 mm | - | 0 W/m² | - |
| 1777536413 | 6.67° C | 86% | 833 hPa | 0 mm | - | 0 W/m² | - |
| 1777536112 | 6.67° C | 86% | 833 hPa | 0 mm | - | 0 W/m² | - |
* Rain latest hour (hover to see other rain measurements)
** Current wind speed in m/s (hover to see current wind gust speed)